Terug naar catalogus

STARLINK-37408

ActiefCommunicatieVLEO
NORAD 69518·PAYLOAD·🇺🇸 United States

Gelanceerd Jun 12, 2026 vanaf Cape Canaveral Space Force Station

Loading…

Volgende Passages (komende 24 uur)

TLE

VersSource: CelesTrak SupGP

Epoch: Sep 15, 2026, 04:14 UTC

1 69518C 26133L   26258.17687500 -.00048323  00000+0 -14278-2 0  2584
2 69518  53.1562 254.6333 0001315  89.2657   7.7987 15.34413449    13

Volg STARLINK-37408 in realtime met AllMySat

Download on the App Store